QPF
0.00 0.00 0.00 0.00 0.00 0.00 0.00 0.00 0.00 0.00 0.00 0.00 0.00 0.00 0.00 0.00 0.00 0.00 0.00 0.00 0.00 0.00 0.00 0.00 0.00 0.01 0.01 0.01 0.01 0.01 0.01 0.01 0.02 0.02 0.02 0.02 0.03 0.03
0.00 0.00 0.00 0.00 0.00 0.00 0.00 0.00 0.00 0.00 0.00 0.00 0.00 0.00 0.00 0.00 0.00 0.00 0.00 0.00 0.00 0.00 0.00 0.00 0.00 0.01 0.01 0.01 0.01 0.01 0.02 0.02 0.02 0.03 0.03 0.04 0.04 0.04
0.00 0.00 0.00 0.00 0.00 0.00 0.00 0.00 0.00 0.00 0.00 0.00 0.00 0.00 0.00 0.00 0.00 0.00 0.00 0.00 0.00 0.00 0.00 0.00 0.01 0.01 0.01 0.01 0.01 0.02 0.02 0.02 0.03 0.03 0.04 0.04 0.04 0.05
0.00 0.00 0.00 0.00 0.00 0.00 0.00 0.00 0.00 0.00 0.00 0.00 0.00 0.00 0.00 0.00 0.00 0.00 0.00 0.00 0.00 0.00 0.00 0.00 0.01 0.01 0.01 0.01 0.01 0.01 0.02 0.02 0.02 0.03 0.03 0.04 0.04 0.05
0.00 0.00 0.00 0.00 0.00 0.00 0.00 0.00 0.00 0.00 0.00 0.00 0.00 0.00 0.00 0.00 0.00 0.00 0.00 0.00 0.00 0.00 0.00 0.00 0.00 0.00 0.01 0.01 0.01 0.01 0.02 0.02 0.02 0.02 0.03 0.03 0.03 0.04
0.00 0.00 0.00 0.00 0.00 0.00 0.00 0.00 0.00 0.00 0.00 0.00 0.00 0.00 0.00 0.00 0.00 0.01 0.01 0.00 0.00 0.00 0.00 0.00 0.00 0.00 0.00 0.00 0.01 0.01 0.01 0.01 0.02 0.02 0.02 0.02 0.02 0.02
0.00 0.00 0.00 0.00 0.00 0.00 0.00 0.00 0.00 0.00 0.01 0.01 0.01 0.01 0.01 0.01 0.01 0.01 0.01 0.01 0.00 0.00 0.00 0.00 0.00 0.00 0.00 0.00 0.00 0.00 0.01 0.02 0.02 0.02 0.03 0.03 0.03 0.03
0.00 0.00 0.00 0.00 0.00 0.00 0.00 0.00 0.00 0.01 0.01 0.01 0.01 0.01 0.01 0.01 0.01 0.02 0.02 0.02 0.01 0.00 0.01 0.00 0.00 0.00 0.00 0.00 0.00 0.01 0.01 0.02 0.02 0.02 0.03 0.03 0.03 0.03
0.00 0.00 0.00 0.00 0.00 0.00 0.00 0.00 0.00 0.00 0.01 0.01 0.02 0.01 0.01 0.01 0.01 0.02 0.02 0.02 0.02 0.01 0.02 0.01 0.00 0.00 0.00 0.00 0.00 0.01 0.02 0.02 0.02 0.02 0.03 0.03 0.03 0.03
0.00 0.00 0.00 0.00 0.00 0.00 0.00 0.00 0.00 0.00 0.00 0.01 0.01 0.01 0.01 0.01 0.02 0.03 0.04 0.04 0.03 0.01 0.01 0.02 0.01 0.00 0.00 0.00 0.00 0.01 0.01 0.02 0.02 0.02 0.03 0.03 0.03 0.03
0.00 0.00 0.00 0.00 0.00 0.00 0.00 0.01 0.01 0.00 0.01 0.01 0.02 0.02 0.03 0.03 0.04 0.05 0.05 0.06 0.04 0.01 0.01 0.01 0.01 0.00 0.00 0.00 0.00 0.01 0.01 0.01 0.01 0.02 0.02 0.03 0.02 0.02
0.00 0.00 0.00 0.00 0.00 0.01 0.01 0.01 0.01 0.01 0.01 0.01 0.01 0.01 0.01 0.01 0.02 0.02 0.02 0.04 0.04 0.03 0.01 0.01 0.01 0.01 0.01 0.00 0.00 0.00 0.00 0.01 0.01 0.01 0.02 0.02 0.02 0.02
0.00 0.00 0.00 0.00 0.01 0.01 0.01 0.01 0.02 0.02 0.02 0.02 0.02 0.02 0.01 0.01 0.01 0.01 0.01 0.02 0.03 0.03 0.01 0.02 0.02 0.01 0.02 0.01 0.00 0.00 0.00 0.01 0.01 0.01 0.01 0.02 0.02 0.02
0.00 0.00 0.00 0.00 0.01 0.01 0.01 0.02 0.02 0.02 0.02 0.02 0.02 0.01 0.01 0.01 0.01 0.01 0.01 0.01 0.01 0.01 0.01 0.02 0.03 0.02 0.02 0.02 0.00 0.00 0.00 0.01 0.01 0.01 0.02 0.02 0.02 0.02
0.00 0.00 0.01 0.01 0.01 0.01 0.01 0.01 0.01 0.01 0.01 0.01 0.01 0.01 0.01 0.01 0.01 0.01 0.01 0.01 0.01 0.00 0.00 0.01 0.01 0.02 0.03 0.03 0.01 0.01 0.01 0.01 0.01 0.01 0.02 0.02 0.01 0.01
0.01 0.01 0.01 0.01 0.01 0.01 0.01 0.01 0.00 0.01 0.01 0.01 0.01 0.01 0.01 0.01 0.01 0.01 0.01 0.01 0.01 0.01 0.00 0.00 0.01 0.01 0.02 0.01 0.02 0.01 0.01 0.02 0.01 0.01 0.01 0.01 0.00 0.00
0.01 0.01 0.01 0.01 0.01 0.01 0.01 0.01 0.01 0.01 0.01 0.01 0.01 0.01 0.01 0.01 0.01 0.01 0.01 0.01 0.02 0.01 0.01 0.01 0.00 0.00 0.01 0.01 0.01 0.01 0.01 0.01 0.01 0.01 0.01 0.00 0.00 0.00
0.01 0.01 0.01 0.01 0.01 0.01 0.01 0.01 0.01 0.01 0.01 0.01 0.01 0.01 0.01 0.01 0.01 0.01 0.01 0.02 0.02 0.01 0.01 0.01 0.01 0.01 0.01 0.01 0.01 0.01 0.01 0.01 0.01 0.01 0.01 0.01 0.00 0.00
0.01 0.01 0.00 0.00 0.00 0.01 0.01 0.01 0.01 0.01 0.01 0.01 0.01 0.01 0.01 0.01 0.01 0.01 0.01 0.02 0.01 0.01 0.01 0.01 0.01 0.01 0.01 0.01 0.01 0.01 0.01 0.01 0.01 0.01 0.01 0.01 0.01 0.00
0.00 0.00 0.00 0.00 0.01 0.01 0.01 0.01 0.01 0.01 0.01 0.01 0.01 0.01 0.01 0.01 0.01 0.02 0.02 0.02 0.02 0.01 0.01 0.01 0.01 0.01 0.02 0.01 0.01 0.00 0.00 0.01 0.01 0.01 0.01 0.01 0.01 0.01
0.00 0.00 0.00 0.01 0.01 0.01 0.01 0.01 0.01 0.01 0.01 0.01 0.01 0.01 0.01 0.01 0.01 0.01 0.01 0.01 0.01 0.01 0.01 0.01 0.00 0.01 0.01 0.01 0.01 0.01 0.01 0.01 0.01 0.01 0.00 0.01 0.01 0.01
0.00 0.00 0.00 0.01 0.01 0.01 0.01 0.01 0.01 0.01 0.01 0.01 0.01 0.01 0.01 0.01 0.01 0.01 0.01 0.01 0.01 0.01 0.01 0.01 0.00 0.01 0.01 0.01 0.01 0.01 0.01 0.01 0.00 0.00 0.00 0.01 0.01 0.02
0.01 0.01 0.01 0.01 0.01 0.01 0.01 0.01 0.01 0.01 0.01 0.01 0.01 0.01 0.01 0.01 0.01 0.01 0.01 0.01 0.01 0.01 0.01 0.01 0.01 0.01 0.01 0.01 0.01 0.01 0.01 0.01 0.01 0.01 0.01 0.01 0.00 0.00
MSLP
1022.18 1022.58 1022.96 1023.28 1023.52 1023.65 1023.66 1023.56 1023.35 1023.06 1022.71 1022.33 1021.94 1021.55 1021.18 1020.83 1020.50 1020.18 1019.88 1019.59 1019.30 1019.01 1018.72 1018.42 1018.09 1017.75 1017.37 1016.95 1016.50 1016.01 1015.50 1014.97 1014.44 1013.93 1013.43 1012.95 1012.50 1012.07
1021.94 1022.30 1022.65 1022.95 1023.19 1023.35 1023.40 1023.35 1023.20 1022.97 1022.67 1022.33 1021.95 1021.56 1021.17 1020.78 1020.40 1020.02 1019.66 1019.31 1018.97 1018.64 1018.31 1017.99 1017.65 1017.30 1016.92 1016.51 1016.07 1015.60 1015.10 1014.58 1014.05 1013.52 1013.00 1012.49 1012.00 1011.53
1021.60 1021.91 1022.21 1022.48 1022.71 1022.87 1022.95 1022.95 1022.87 1022.71 1022.48 1022.20 1021.87 1021.51 1021.12 1020.72 1020.30 1019.87 1019.45 1019.04 1018.63 1018.25 1017.88 1017.52 1017.16 1016.80 1016.43 1016.03 1015.60 1015.14 1014.65 1014.13 1013.60 1013.05 1012.50 1011.96 1011.42 1010.91
1021.17 1021.43 1021.67 1021.90 1022.11 1022.26 1022.36 1022.41 1022.39 1022.31 1022.16 1021.96 1021.70 1021.38 1021.02 1020.62 1020.19 1019.73 1019.25 1018.78 1018.32 1017.87 1017.45 1017.05 1016.66 1016.29 1015.91 1015.52 1015.11 1014.66 1014.18 1013.66 1013.11 1012.53 1011.95 1011.36 1010.78 1010.22
1020.67 1020.89 1021.09 1021.27 1021.44 1021.58 1021.69 1021.76 1021.79 1021.78 1021.71 1021.58 1021.39 1021.14 1020.83 1020.45 1020.02 1019.55 1019.05 1018.53 1018.02 1017.52 1017.05 1016.61 1016.20 1015.81 1015.42 1015.03 1014.62 1014.17 1013.69 1013.15 1012.58 1011.98 1011.35 1010.72 1010.10 1009.50
1020.15 1020.32 1020.47 1020.62 1020.74 1020.86 1020.96 1021.04 1021.10 1021.13 1021.12 1021.06 1020.95 1020.76 1020.51 1020.18 1019.78 1019.32 1018.81 1018.27 1017.73 1017.19 1016.69 1016.22 1015.78 1015.37 1014.97 1014.57 1014.15 1013.70 1013.20 1012.64 1012.04 1011.40 1010.73 1010.06 1009.41 1008.80
1019.60 1019.74 1019.86 1019.96 1020.04 1020.12 1020.19 1020.26 1020.32 1020.37 1020.40 1020.39 1020.34 1020.23 1020.04 1019.77 1019.42 1018.99 1018.51 1017.98 1017.43 1016.89 1016.37 1015.87 1015.42 1014.99 1014.58 1014.16 1013.73 1013.25 1012.72 1012.14 1011.51 1010.83 1010.13 1009.44 1008.77 1008.16
1019.03 1019.15 1019.24 1019.30 1019.34 1019.36 1019.39 1019.42 1019.46 1019.51 1019.55 1019.58 1019.58 1019.53 1019.41 1019.21 1018.93 1018.56 1018.13 1017.64 1017.12 1016.59 1016.07 1015.57 1015.11 1014.67 1014.24 1013.80 1013.35 1012.84 1012.29 1011.68 1011.01 1010.31 1009.59 1008.89 1008.23 1007.64
1018.43 1018.54 1018.60 1018.62 1018.61 1018.59 1018.56 1018.54 1018.55 1018.57 1018.61 1018.65 1018.69 1018.69 1018.64 1018.51 1018.31 1018.03 1017.67 1017.24 1016.77 1016.27 1015.78 1015.30 1014.83 1014.39 1013.95 1013.50 1013.02 1012.50 1011.92 1011.28 1010.60 1009.88 1009.16 1008.46 1007.83 1007.27
1017.76 1017.86 1017.91 1017.90 1017.85 1017.77 1017.69 1017.63 1017.58 1017.58 1017.60 1017.65 1017.71 1017.76 1017.77 1017.72 1017.61 1017.41 1017.13 1016.78 1016.37 1015.94 1015.48 1015.03 1014.59 1014.15 1013.71 1013.25 1012.76 1012.23 1011.64 1010.99 1010.30 1009.59 1008.87 1008.20 1007.59 1007.08
1017.02 1017.12 1017.14 1017.11 1017.03 1016.92 1016.80 1016.69 1016.61 1016.58 1016.59 1016.64 1016.72 1016.80 1016.87 1016.89 1016.85 1016.74 1016.54 1016.27 1015.94 1015.56 1015.16 1014.75 1014.34 1013.92 1013.50 1013.05 1012.57 1012.04 1011.45 1010.82 1010.14 1009.44 1008.75 1008.11 1007.54 1007.07
1016.21 1016.30 1016.32 1016.28 1016.18 1016.05 1015.91 1015.77 1015.67 1015.61 1015.62 1015.67 1015.77 1015.88 1015.99 1016.07 1016.10 1016.05 1015.93 1015.73 1015.47 1015.16 1014.81 1014.45 1014.08 1013.70 1013.31 1012.89 1012.43 1011.92 1011.36 1010.75 1010.11 1009.44 1008.79 1008.18 1007.65 1007.21
1015.33 1015.42 1015.45 1015.41 1015.32 1015.18 1015.03 1014.89 1014.79 1014.73 1014.74 1014.80 1014.91 1015.05 1015.19 1015.31 1015.38 1015.38 1015.31 1015.17 1014.96 1014.71 1014.42 1014.11 1013.79 1013.46 1013.11 1012.74 1012.33 1011.86 1011.35 1010.78 1010.18 1009.55 1008.95 1008.38 1007.87 1007.46
1014.45 1014.54 1014.57 1014.54 1014.46 1014.35 1014.21 1014.08 1013.99 1013.95 1013.97 1014.04 1014.17 1014.33 1014.48 1014.62 1014.71 1014.74 1014.70 1014.60 1014.43 1014.22 1013.98 1013.72 1013.46 1013.19 1012.90 1012.58 1012.23 1011.82 1011.36 1010.85 1010.30 1009.73 1009.16 1008.63 1008.16 1007.76
1013.59 1013.68 1013.72 1013.71 1013.65 1013.56 1013.45 1013.35 1013.28 1013.26 1013.30 1013.39 1013.53 1013.70 1013.86 1014.00 1014.10 1014.13 1014.10 1014.01 1013.87 1013.69 1013.49 1013.29 1013.08 1012.87 1012.64 1012.39 1012.11 1011.77 1011.37 1010.92 1010.43 1009.90 1009.38 1008.88 1008.43 1008.04
1012.79 1012.89 1012.94 1012.94 1012.89 1012.82 1012.74 1012.67 1012.63 1012.64 1012.70 1012.81 1012.96 1013.13 1013.29 1013.43 1013.51 1013.54 1013.51 1013.43 1013.30 1013.14 1012.98 1012.81 1012.66 1012.50 1012.34 1012.16 1011.94 1011.67 1011.33 1010.94 1010.50 1010.02 1009.54 1009.07 1008.64 1008.26
1012.10 1012.18 1012.23 1012.23 1012.19 1012.13 1012.07 1012.02 1012.01 1012.04 1012.13 1012.26 1012.42 1012.59 1012.75 1012.87 1012.95 1012.96 1012.93 1012.84 1012.72 1012.58 1012.45 1012.33 1012.22 1012.11 1012.01 1011.89 1011.73 1011.51 1011.23 1010.89 1010.49 1010.05 1009.59 1009.15 1008.74 1008.38
1011.50 1011.56 1011.58 1011.56 1011.51 1011.45 1011.39 1011.36 1011.37 1011.42 1011.53 1011.68 1011.85 1012.03 1012.19 1012.31 1012.38 1012.39 1012.35 1012.27 1012.16 1012.05 1011.94 1011.85 1011.78 1011.73 1011.67 1011.59 1011.47 1011.30 1011.06 1010.75 1010.39 1009.98 1009.55 1009.13 1008.73 1008.38
1010.97 1010.99 1010.98 1010.93 1010.85 1010.77 1010.70 1010.67 1010.69 1010.76 1010.88 1011.04 1011.23 1011.43 1011.60 1011.73 1011.81 1011.83 1011.80 1011.74 1011.65 1011.56 1011.48 1011.43 1011.39 1011.37 1011.34 1011.30 1011.21 1011.07 1010.85 1010.57 1010.22 1009.83 1009.43 1009.02 1008.64 1008.30
1010.49 1010.46 1010.40 1010.30 1010.18 1010.07 1009.98 1009.94 1009.96 1010.04 1010.18 1010.36 1010.58 1010.79 1010.98 1011.14 1011.24 1011.29 1011.29 1011.25 1011.20 1011.14 1011.09 1011.07 1011.06 1011.06 1011.06 1011.03 1010.96 1010.83 1010.63 1010.37 1010.04 1009.67 1009.27 1008.88 1008.51 1008.17
1010.04 1009.95 1009.82 1009.67 1009.51 1009.36 1009.25 1009.20 1009.21 1009.30 1009.45 1009.65 1009.89 1010.13 1010.36 1010.55 1010.69 1010.77 1010.81 1010.82 1010.80 1010.79 1010.77 1010.78 1010.79 1010.82 1010.83 1010.82 1010.76 1010.64 1010.45 1010.19 1009.88 1009.52 1009.15 1008.76 1008.40 1008.06
1009.60 1009.45 1009.27 1009.06 1008.86 1008.68 1008.54 1008.48 1008.49 1008.58 1008.74 1008.96 1009.22 1009.49 1009.75 1009.97 1010.15 1010.29 1010.38 1010.43 1010.46 1010.48 1010.51 1010.54 1010.59 1010.63 1010.65 1010.65 1010.60 1010.49 1010.32 1010.08 1009.79 1009.45 1009.10 1008.73 1008.37 1008.02
1009.18 1008.98 1008.75 1008.51 1008.27 1008.07 1007.91 1007.84 1007.84 1007.93 1008.10 1008.33 1008.60 1008.88 1009.17 1009.42 1009.64 1009.82 1009.96 1010.06 1010.14 1010.20 1010.27 1010.34 1010.40 1010.47 1010.51 1010.52 1010.49 1010.40 1010.26 1010.05 1009.79 1009.48 1009.15 1008.80 1008.45 1008.09
Thickness
5506 5501 5496 5491 5486 5481 5476 5470 5464 5464 5469 5469 5467 5466 5461 5457 5453 5450 5447 5443 5440 5437 5435 5433 5431 5429 5428 5426 5425 5425 5425 5426 5427 5429 5431 5435 5438 5443
5498 5492 5487 5482 5477 5472 5467 5462 5457 5453 5455 5458 5454 5450 5447 5443 5439 5435 5431 5427 5424 5420 5418 5415 5413 5410 5408 5406 5404 5404 5404 5404 5405 5407 5410 5413 5417 5421
5490 5485 5479 5474 5469 5463 5458 5453 5448 5443 5444 5450 5442 5437 5432 5428 5424 5419 5415 5411 5407 5402 5399 5396 5393 5390 5387 5385 5383 5382 5382 5382 5383 5384 5386 5389 5393 5398
5482 5476 5471 5466 5460 5455 5449 5443 5438 5433 5430 5434 5431 5423 5417 5411 5407 5403 5398 5393 5388 5383 5379 5376 5373 5369 5366 5363 5361 5360 5359 5359 5360 5361 5363 5366 5369 5372
5473 5467 5462 5456 5451 5445 5439 5434 5428 5424 5418 5416 5416 5409 5402 5395 5390 5386 5381 5375 5369 5364 5360 5356 5352 5349 5345 5343 5341 5340 5339 5339 5340 5340 5341 5343 5346 5350
5465 5459 5453 5447 5441 5436 5430 5424 5417 5411 5404 5400 5398 5394 5387 5379 5371 5367 5365 5358 5352 5346 5341 5337 5333 5330 5326 5323 5322 5321 5321 5321 5322 5323 5325 5327 5329 5333
5456 5450 5445 5439 5433 5427 5421 5413 5406 5398 5391 5385 5382 5378 5372 5362 5354 5348 5345 5341 5337 5328 5325 5321 5316 5313 5310 5307 5306 5306 5307 5308 5309 5311 5313 5315 5317 5320
5448 5442 5436 5430 5424 5418 5412 5405 5397 5387 5378 5371 5367 5360 5355 5345 5338 5332 5325 5322 5322 5316 5308 5307 5301 5299 5296 5295 5295 5295 5296 5297 5299 5301 5304 5306 5309 5312
5438 5432 5427 5421 5413 5407 5401 5394 5385 5375 5366 5357 5351 5345 5337 5331 5323 5317 5310 5305 5304 5300 5293 5294 5289 5287 5286 5285 5285 5286 5287 5289 5291 5294 5296 5299 5302 5306
5429 5422 5415 5409 5401 5394 5388 5381 5372 5362 5352 5344 5337 5332 5324 5317 5310 5304 5300 5297 5294 5288 5280 5280 5280 5278 5278 5277 5277 5278 5281 5283 5285 5287 5291 5294 5297 5301
5419 5411 5403 5396 5390 5383 5375 5368 5360 5352 5342 5333 5326 5320 5314 5307 5300 5294 5288 5283 5282 5278 5271 5267 5269 5269 5270 5270 5271 5272 5274 5276 5279 5282 5285 5289 5293 5296
5410 5401 5393 5385 5377 5369 5360 5352 5345 5339 5331 5324 5316 5309 5302 5295 5289 5281 5275 5270 5268 5266 5263 5258 5258 5257 5261 5264 5264 5265 5267 5270 5273 5277 5280 5285 5289 5292
5398 5389 5381 5372 5365 5356 5347 5339 5332 5326 5320 5312 5305 5298 5290 5284 5278 5272 5266 5260 5256 5255 5253 5250 5250 5248 5248 5254 5258 5260 5262 5265 5268 5272 5276 5280 5285 5288
5385 5377 5369 5361 5353 5344 5335 5327 5320 5314 5306 5298 5291 5285 5278 5272 5268 5263 5258 5253 5249 5247 5246 5244 5243 5243 5244 5247 5251 5256 5258 5261 5264 5268 5272 5277 5280 5284
5372 5365 5357 5349 5341 5332 5323 5315 5308 5299 5291 5285 5279 5273 5266 5262 5257 5253 5250 5247 5244 5243 5242 5241 5240 5240 5240 5243 5247 5250 5253 5258 5262 5265 5268 5272 5275 5279
5359 5352 5345 5336 5328 5320 5312 5303 5294 5287 5280 5274 5268 5262 5256 5252 5247 5244 5241 5239 5238 5238 5239 5239 5239 5238 5239 5241 5243 5246 5249 5253 5258 5262 5265 5269 5273 5276
5347 5340 5331 5322 5314 5307 5299 5292 5285 5278 5270 5263 5257 5251 5247 5243 5240 5237 5234 5233 5232 5233 5234 5236 5237 5237 5238 5239 5241 5245 5248 5252 5255 5259 5262 5266 5270 5274
5334 5326 5318 5310 5302 5295 5288 5281 5274 5267 5261 5254 5248 5242 5238 5235 5233 5231 5230 5229 5228 5229 5231 5232 5233 5234 5235 5240 5243 5245 5247 5250 5253 5257 5260 5263 5267 5272
5321 5313 5305 5297 5290 5283 5276 5270 5264 5257 5251 5245 5240 5235 5232 5229 5227 5226 5226 5225 5226 5227 5228 5229 5229 5229 5230 5233 5239 5244 5244 5247 5250 5254 5258 5261 5264 5269
5307 5300 5293 5286 5279 5272 5266 5260 5255 5249 5243 5238 5234 5230 5227 5224 5222 5222 5222 5222 5223 5224 5225 5226 5227 5227 5228 5230 5233 5238 5243 5245 5248 5251 5256 5260 5264 5269
5298 5290 5283 5276 5269 5263 5257 5252 5246 5241 5237 5232 5229 5226 5223 5220 5219 5218 5219 5221 5222 5221 5222 5224 5225 5228 5228 5228 5230 5236 5241 5245 5248 5251 5254 5257 5261 5267
5288 5281 5274 5267 5261 5255 5249 5244 5239 5235 5232 5228 5224 5221 5219 5217 5216 5215 5216 5217 5218 5219 5221 5222 5224 5225 5225 5227 5229 5233 5238 5244 5248 5252 5255 5258 5259 5263
5278 5272 5266 5259 5253 5247 5242 5238 5234 5231 5227 5224 5220 5218 5216 5215 5213 5214 5214 5215 5216 5218 5219 5220 5222 5223 5224 5226 5228 5232 5236 5240 5245 5250 5255 5260 5263 5267